TimeMDT,TemperatureF,Dew PointF,Humidity,Sea Level PressureIn,VisibilityMPH,Wind Direction,Wind SpeedMPH,Gust SpeedMPH,PrecipitationIn,Events,Conditions,WindDirDegrees,DateUTC
12:18 AM,39.2,39.2,100,30.59,0.2,North,-9999.0,-,N/A,Fog,Fog,0,2013-07-16 06:18:00
12:38 AM,41.0,41.0,100,30.59,0.2,North,-9999.0,-,N/A,Fog,Fog,0,2013-07-16 06:38:00
12:58 AM,39.2,39.2,100,30.59,0.2,North,-9999.0,-,N/A,Fog,Fog,0,2013-07-16 06:58:00
1:18 AM,39.2,39.2,100,30.58,0.2,North,-9999.0,-,N/A,Fog,Fog,0,2013-07-16 07:18:00
1:38 AM,39.2,39.2,100,30.57,0.2,North,-9999.0,-,N/A,Fog,Fog,0,2013-07-16 07:38:00
1:58 AM,39.2,39.2,100,30.57,0.2,North,-9999.0,-,N/A,Fog,Fog,0,2013-07-16 07:58:00
2:18 AM,37.4,37.4,100,30.57,0.8,North,-9999.0,-,N/A,,Overcast,0,2013-07-16 08:18:00
2:38 AM,37.4,37.4,100,30.57,7.0,North,-9999.0,-,N/A,,Overcast,0,2013-07-16 08:38:00
2:58 AM,37.4,37.4,100,30.57,7.0,North,-9999.0,-,N/A,,Scattered Clouds,0,2013-07-16 08:58:00
3:18 AM,37.4,37.4,100,30.57,5.0,North,-9999.0,-,N/A,,Scattered Clouds,0,2013-07-16 09:18:00
3:38 AM,37.4,37.4,100,30.56,3.0,North,-9999.0,-,N/A,,Scattered Clouds,0,2013-07-16 09:38:00
3:58 AM,37.4,37.4,100,30.56,2.0,North,-9999.0,-,N/A,,Scattered Clouds,0,2013-07-16 09:58:00
4:18 AM,37.4,37.4,100,30.55,1.5,North,-9999.0,-,N/A,,Mostly Cloudy,0,2013-07-16 10:18:00
4:38 AM,37.4,37.4,100,30.55,10.0,North,-9999.0,-,N/A,,Clear,0,2013-07-16 10:38:00
4:58 AM,37.4,37.4,100,30.54,10.0,North,-9999.0,-,N/A,,Clear,0,2013-07-16 10:58:00
5:18 AM,37.4,37.4,100,30.55,7.0,North,-9999.0,-,N/A,,Mostly Cloudy,0,2013-07-16 11:18:00
5:38 AM,37.4,37.4,100,30.55,7.0,North,-9999.0,-,N/A,,Mostly Cloudy,0,2013-07-16 11:38:00
5:58 AM,39.2,39.2,100,30.55,5.0,North,-9999.0,-,N/A,,Mostly Cloudy,0,2013-07-16 11:58:00
6:18 AM,39.2,39.2,100,30.55,2.5,North,-9999.0,-,N/A,,Scattered Clouds,0,2013-07-16 12:18:00
6:38 AM,37.4,37.4,100,30.56,3.0,North,-9999.0,-,N/A,,Mostly Cloudy,0,2013-07-16 12:38:00
6:58 AM,41.0,41.0,100,30.57,4.0,North,-9999.0,-,N/A,,Mostly Cloudy,0,2013-07-16 12:58:00
7:18 AM,39.2,39.2,100,30.57,0.5,North,-9999.0,-,N/A,Fog,Fog,0,2013-07-16 13:18:00
7:38 AM,41.0,41.0,100,30.57,0.2,North,-9999.0,-,N/A,Fog,Fog,0,2013-07-16 13:38:00
7:58 AM,41.0,41.0,100,30.58,0.2,North,-9999.0,-,N/A,Fog,Fog,0,2013-07-16 13:58:00
8:18 AM,41.0,41.0,100,30.58,0.2,North,-9999.0,-,N/A,Fog,Fog,0,2013-07-16 14:18:00
8:38 AM,41.0,41.0,100,30.59,0.2,North,-9999.0,-,N/A,Fog,Fog,0,2013-07-16 14:38:00
8:58 AM,41.0,41.0,100,30.59,0.2,North,-9999.0,-,N/A,Fog,Fog,0,2013-07-16 14:58:00
9:18 AM,41.0,41.0,100,30.59,0.2,North,-9999.0,-,N/A,Fog,Fog,0,2013-07-16 15:18:00
9:38 AM,41.0,41.0,100,30.59,0.2,North,-9999.0,-,N/A,Fog,Fog,0,2013-07-16 15:38:00
9:58 AM,42.8,42.8,100,30.59,0.2,North,-9999.0,-,N/A,Fog,Fog,0,2013-07-16 15:58:00
10:18 AM,42.8,42.8,100,30.59,0.2,North,-9999.0,-,N/A,Fog,Fog,0,2013-07-16 16:18:00
10:38 AM,41.0,41.0,100,30.59,0.2,North,-9999.0,-,N/A,Fog,Fog,0,2013-07-16 16:38:00
10:58 AM,42.8,42.8,100,30.60,0.2,North,-9999.0,-,N/A,Fog,Fog,0,2013-07-16 16:58:00
11:18 AM,42.8,42.8,100,30.61,0.2,North,-9999.0,-,N/A,Fog,Fog,0,2013-07-16 17:18:00
11:38 AM,42.8,42.8,100,30.60,0.2,North,-9999.0,-,N/A,Fog,Fog,0,2013-07-16 17:38:00
11:58 AM,42.8,42.8,100,30.60,0.2,North,-9999.0,-,N/A,Fog,Fog,0,2013-07-16 17:58:00
12:18 PM,44.6,44.6,100,30.61,0.2,North,-9999.0,-,N/A,Fog,Fog,0,2013-07-16 18:18:00
12:38 PM,44.6,44.6,100,30.61,1.0,North,-9999.0,-,N/A,,Overcast,0,2013-07-16 18:38:00
12:58 PM,44.6,44.6,100,30.61,0.5,North,-9999.0,-,N/A,Fog,Fog,0,2013-07-16 18:58:00
1:18 PM,44.6,44.6,100,30.61,0.2,North,-9999.0,-,N/A,Fog,Fog,0,2013-07-16 19:18:00
1:38 PM,44.6,44.6,100,30.61,0.2,North,-9999.0,-,N/A,Fog,Fog,0,2013-07-16 19:38:00
1:58 PM,44.6,44.6,100,30.61,0.5,North,-9999.0,-,N/A,Fog,Fog,0,2013-07-16 19:58:00
2:18 PM,44.6,44.6,100,30.61,5.0,North,-9999.0,-,N/A,,Overcast,0,2013-07-16 20:18:00
2:38 PM,46.4,44.6,93,30.61,5.0,North,-9999.0,-,N/A,,Overcast,0,2013-07-16 20:38:00
2:58 PM,46.4,44.6,93,30.61,10.0,North,-9999.0,-,N/A,,Overcast,0,2013-07-16 20:58:00
3:18 PM,51.8,42.8,71,30.60,10.0,North,-9999.0,-,N/A,,Mostly Cloudy,0,2013-07-16 21:18:00
3:38 PM,53.6,39.2,58,30.59,10.0,North,-9999.0,-,N/A,,Mostly Cloudy,0,2013-07-16 21:38:00
3:58 PM,53.6,35.6,51,30.59,10.0,North,-9999.0,-,N/A,,Scattered Clouds,0,2013-07-16 21:58:00
4:18 PM,55.4,35.6,47,30.60,10.0,North,-9999.0,-,N/A,,Clear,0,2013-07-16 22:18:00
4:38 PM,53.6,33.8,47,30.59,10.0,North,-9999.0,-,N/A,Thunderstorm,Clear,0,2013-07-16 22:38:00
4:58 PM,53.6,35.6,51,30.59,10.0,North,-9999.0,-,N/A,,Clear,0,2013-07-16 22:58:00
5:18 PM,51.8,33.8,50,30.60,10.0,North,-9999.0,-,N/A,,Scattered Clouds,0,2013-07-16 23:18:00
5:38 PM,51.8,32.0,47,30.60,10.0,North,-9999.0,-,N/A,,Scattered Clouds,0,2013-07-16 23:38:00
5:58 PM,51.8,33.8,50,30.60,10.0,North,-9999.0,-,N/A,Thunderstorm,Thunderstorm,0,2013-07-16 23:58:00
6:18 PM,51.8,33.8,50,30.59,10.0,North,-9999.0,-,N/A,Thunderstorm,Scattered Clouds,0,2013-07-17 00:18:00
6:38 PM,51.8,32.0,47,30.60,10.0,North,-9999.0,-,N/A,,Scattered Clouds,0,2013-07-17 00:38:00
6:58 PM,50.0,32.0,50,30.60,10.0,North,-9999.0,-,N/A,Thunderstorm,Clear,0,2013-07-17 00:58:00
7:18 PM,50.0,33.8,54,30.62,10.0,North,-9999.0,-,N/A,Thunderstorm,Scattered Clouds,0,2013-07-17 01:18:00
7:38 PM,50.0,41.0,71,30.62,10.0,North,-9999.0,-,N/A,Thunderstorm,Overcast,0,2013-07-17 01:38:00
7:58 PM,48.2,42.8,82,30.63,10.0,North,-9999.0,-,N/A,,Overcast,0,2013-07-17 01:58:00
8:18 PM,46.4,42.8,87,30.64,10.0,North,-9999.0,-,N/A,,Overcast,0,2013-07-17 02:18:00
8:38 PM,46.4,42.8,87,30.64,10.0,North,-9999.0,-,N/A,,Overcast,0,2013-07-17 02:38:00
8:58 PM,46.4,42.8,87,30.64,10.0,North,-9999.0,-,N/A,Thunderstorm,Mostly Cloudy,0,2013-07-17 02:58:00
9:18 PM,44.6,37.4,76,30.65,10.0,North,-9999.0,-,N/A,,Mostly Cloudy,0,2013-07-17 03:18:00
9:38 PM,44.6,35.6,71,30.67,10.0,North,-9999.0,-,N/A,,Mostly Cloudy,0,2013-07-17 03:38:00
9:58 PM,44.6,35.6,71,30.67,10.0,North,-9999.0,-,N/A,,Scattered Clouds,0,2013-07-17 03:58:00
10:18 PM,44.6,35.6,71,30.68,10.0,North,-9999.0,-,N/A,,Clear,0,2013-07-17 04:18:00
10:38 PM,42.8,35.6,76,30.68,10.0,North,-9999.0,-,N/A,,Scattered Clouds,0,2013-07-17 04:38:00
10:58 PM,42.8,35.6,76,30.68,10.0,North,-9999.0,-,N/A,,Scattered Clouds,0,2013-07-17 04:58:00
11:18 PM,42.8,35.6,76,30.69,10.0,North,-9999.0,-,N/A,,Clear,0,2013-07-17 05:18:00
11:38 PM,41.0,35.6,81,30.69,10.0,North,-9999.0,-,N/A,,Clear,0,2013-07-17 05:38:00
11:58 PM,42.8,35.6,76,30.69,10.0,North,-9999.0,-,N/A,,Clear,0,2013-07-17 05:58:00